FW5736 Weather Reports


Display with metric or nautical units.
time (UTC)temp
F
wind
direction
speed
MPH
gust
MPH
rain 1hr
in
rain 24hr
in
rain mn
in
humidity
%
barometer
mb
20260831044630 75 46 0.0 2.0 0.00 0.00 0.00 52 1027.5
20260831044129 75 68 0.0 1.0 0.00 0.00 0.00 52 1027.5
20260831043630 75 88 0.0 2.0 0.00 0.00 0.00 54 1027.6
20260831043129 75 90 0.0 5.0 0.00 0.00 0.00 53 1027.6
20260831042629 75 60 1.0 7.0 0.00 0.00 0.00 53 1027.6
20260831042130 75 51 1.0 8.0 0.00 0.00 0.00 54 1027.6
20260831041630 75 70 0.0 3.0 0.00 0.00 0.00 55 1027.7
20260831041129 75 63 0.0 8.0 0.00 0.00 0.00 58 1027.6
20260831040630 75 44 1.0 7.0 0.00 0.00 0.00 55 1027.6
20260831040129 75 32 0.0 7.0 0.00 0.00 0.00 55 1027.7
20260831035629 75 57 2.0 8.0 0.00 0.00 0.00 55 1027.7
20260831035130 75 45 1.0 3.0 0.00 0.00 0.00 55 1027.8
20260831034629 75 60 0.0 3.0 0.00 0.00 0.00 54 1027.8
20260831034129 76 24 1.0 3.0 0.00 0.00 0.00 54 1027.9
20260831033630 76 56 1.0 5.0 0.00 0.00 0.00 54 1027.8
20260831033129 76 22 1.0 5.0 0.00 0.00 0.00 55 1027.9
20260831032630 75 54 1.0 7.0 0.00 0.00 0.00 56 1027.9
20260831032129 75 66 2.0 7.0 0.00 0.00 0.00 55 1027.9
20260831031629 75 52 0.0 3.0 0.00 0.00 0.00 53 1028.0
20260831031130 75 59 1.0 5.0 0.00 0.00 0.00 54 1028.1
20260831030629 74 57 0.0 3.0 0.00 0.00 0.00 55 1028.1
20260831030129 74 55 1.0 3.0 0.00 0.00 0.00 55 1028.2
20260831025630 74 58 0.0 3.0 0.00 0.00 0.00 56 1028.2
20260831025129 74 66 0.0 3.0 0.00 0.00 0.00 57 1028.2
20260831024629 73 75 0.0 3.0 0.00 0.00 0.00 55 1028.3
20260831022629 73 13 0.0 5.0 0.00 0.00 0.00 54 1028.6
20260831022130 72 43 0.0 5.0 0.00 0.00 0.00 54 1028.7
20260831021629 72 27 1.0 6.0 0.00 0.00 0.00 55 1028.8
20260831020629 72 74 1.0 3.0 0.00 0.00 0.00 58 1029.0
20260831020129 71 21 0.0 2.0 0.00 0.00 0.00 58 1029.1
20260831015630 71 13 0.0 0.0 0.00 0.00 0.00 58 1029.1
20260831015129 71 6 0.0 2.0 0.00 0.00 0.00 58 1029.3
20260831014629 71 8 0.0 5.0 0.00 0.00 0.00 60 1029.4
20260831014129 70 33 0.0 3.0 0.00 0.00 0.00 58 1029.4
20260831012629 70 7 0.0 3.0 0.00 0.00 0.00 60 1029.7
20260831012130 69 7 0.0 2.0 0.00 0.00 0.00 61 1029.7
20260831011629 69 359 0.0 3.0 0.00 0.00 0.00 62 1029.8
20260831010629 68 359 1.0 3.0 0.00 0.00 0.00 65 1030.0
20260831010129 68 359 1.0 3.0 0.00 0.00 0.00 65 1030.1
20260831005129 67 359 0.0 3.0 0.00 0.00 0.00 67 1030.1
20260831004629 67 359 0.0 0.0 0.00 0.00 0.00 67 1030.1
20260831004129 66 359 0.0 2.0 0.00 0.00 0.00 68 1030.2
20260831003629 66 359 1.0 3.0 0.00 0.00 0.00 68 1030.2
20260831003129 66 359 1.0 3.0 0.00 0.00 0.00 70 1030.2
20260831002629 65 5 1.0 3.0 0.00 0.00 0.00 71 1030.2
20260831002130 65 359 0.0 5.0 0.00 0.00 0.00 71 1030.3
20260831001629 64 359 0.0 0.0 0.00 0.00 0.00 72 1030.2
20260831001129 64 359 0.0 2.0 0.00 0.00 0.00 72 1030.2
20260831000629 64 359 0.0 5.0 0.00 0.00 0.00 74 1030.2
20260831000130 63 359 0.0 3.0 0.00 0.00 0.00 76 1030.2
20260830235630 63 359 0.0 2.0 0.00 0.00 0.00 76 1030.2
20260830235130 62 359 0.0 2.0 0.00 0.00 0.00 78 1030.2
20260830234129 62 359 0.0 3.0 0.00 0.00 0.00 80 1030.3
20260830233629 61 359 1.0 5.0 0.00 0.00 0.00 81 1030.3
20260830233130 61 359 0.0 5.0 0.00 0.00 0.00 82 1030.3
20260830232629 61 359 0.0 5.0 0.00 0.00 0.00 83 1030.2
20260830231629 60 359 1.0 3.0 0.00 0.00 0.00 86 1030.3
20260830231129 60 359 1.0 3.0 0.00 0.00 0.00 87 1030.4
20260830230629 59 359 1.0 3.0 0.00 0.00 0.00 88 1030.4
20260830230129 59 359 2.0 6.0 0.00 0.00 0.00 90 1030.4
20260830225629 59 359 1.0 5.0 0.00 0.00 0.00 91 1030.4
20260830224629 58 359 0.0 3.0 0.00 0.00 0.00 93 1030.2
20260830224129 58 359 1.0 2.0 0.00 0.00 0.00 94 1030.2
20260830223629 57 359 0.0 3.0 0.00 0.00 0.00 94 1030.2
20260830223129 56 359 0.0 1.0 0.00 0.00 0.00 95 1030.2
20260830221130 53 2 0.0 0.0 0.00 0.00 0.00 95 1030.3
20260830220129 53 9 0.0 0.0 0.00 0.00 0.00 95 1030.2
20260830215129 52 0 0.0 0.0 0.00 0.00 0.00 95 1030.1
20260830214629 52 7 0.0 0.0 0.00 0.00 0.00 95 1030.0
20260830214130 52 0 0.0 1.0 0.00 0.00 0.00 95 1030.0
20260830213629 51 359 0.0 0.0 0.00 0.00 0.00 95 1029.9
20260830213129 51 8 0.0 0.0 0.00 0.00 0.00 95 1029.9
20260830212629 51 5 1.0 3.0 0.00 0.00 0.00 95 1029.8
20260830211629 50 93 0.0 0.0 0.00 0.00 0.00 95 1029.8
20260830210629 50 89 0.0 0.0 0.00 0.00 0.00 94 1029.8
20260830205629 49 88 0.0 0.0 0.00 0.00 0.00 94 1029.6
20260830204629 49 88 0.0 0.0 0.00 0.00 0.00 94 1029.5
20260830204129 49 88 0.0 0.0 0.00 0.00 0.00 94 1029.4
20260830203629 49 88 0.0 0.0 0.00 0.00 0.00 93 1029.4
20260830203129 49 88 0.0 0.0 0.00 0.00 0.00 93 1029.4
20260830202629 49 89 0.0 0.0 0.00 0.00 0.00 93 1029.3
20260830202129 49 89 0.0 0.0 0.00 0.00 0.00 94 1029.3
20260830201628 49 88 0.0 0.0 0.00 0.00 0.00 94 1029.3
20260830201129 49 88 0.0 0.0 0.00 0.00 0.00 94 1029.2
20260830200628 49 88 0.0 0.0 0.00 0.00 0.00 93 1029.2
20260830200129 49 88 0.0 0.0 0.00 0.00 0.00 93 1029.2
20260830195628 49 88 0.0 0.0 0.00 0.00 0.00 93 1029.1
20260830194629 49 88 0.0 0.0 0.00 0.00 0.00 93 1029.0
20260830193629 49 88 0.0 0.0 0.00 0.00 0.00 93 1029.0
20260830193129 49 88 0.0 0.0 0.00 0.00 0.00 93 1028.9
20260830192629 49 88 0.0 0.0 0.00 0.00 0.00 93 1029.0
20260830192129 49 88 0.0 0.0 0.00 0.00 0.00 93 1028.9
20260830191629 49 88 0.0 0.0 0.00 0.00 0.00 93 1028.9
20260830191129 49 88 0.0 0.0 0.00 0.00 0.00 93 1028.8
20260830190629 49 84 0.0 0.0 0.00 0.00 0.00 93 1028.8
20260830190129 49 84 0.0 0.0 0.00 0.00 0.00 93 1028.9
20260830185629 49 84 0.0 0.0 0.00 0.00 0.00 93 1028.9
20260830185129 49 84 0.0 0.0 0.00 0.00 0.00 93 1028.8
20260830184629 49 84 0.0 0.0 0.00 0.00 0.00 93 1028.7
20260830184129 49 84 0.0 0.0 0.00 0.00 0.00 93 1028.7
20260830183629 49 84 0.0 0.0 0.00 0.00 0.00 93 1028.7
20260830183129 49 84 0.0 0.0 0.00 0.00 0.00 93 1028.7
20260830182129 50 75 0.0 0.0 0.00 0.00 0.00 92 1028.8
20260830181629 50 75 0.0 0.0 0.00 0.00 0.00 92 1028.8
20260830180629 50 74 0.0 0.0 0.00 0.00 0.00 92 1028.8
20260830180129 50 73 0.0 0.0 0.00 0.00 0.00 92 1028.7
20260830175629 50 73 0.0 0.0 0.00 0.00 0.00 92 1028.7
20260830175128 50 73 0.0 0.0 0.00 0.00 0.00 92 1028.8
20260830174629 50 73 0.0 0.0 0.00 0.00 0.00 92 1028.8
20260830174131 51 73 0.0 0.0 0.00 0.00 0.00 93 1029.0
20260830172131 51 73 0.0 0.0 0.00 0.00 0.00 92 1029.0
20260830171131 51 73 0.0 0.0 0.00 0.00 0.00 92 1029.1
20260830170631 51 74 0.0 0.0 0.00 0.00 0.00 92 1029.1
20260830170131 51 73 0.0 0.0 0.00 0.00 0.00 92 1029.1
20260830165632 51 73 0.0 0.0 0.00 0.00 0.00 92 1029.2
20260830165131 51 73 0.0 0.0 0.00 0.00 0.00 92 1029.2
20260830164631 51 73 0.0 0.0 0.00 0.00 0.00 92 1029.2
20260830164131 51 73 0.0 0.0 0.00 0.00 0.00 92 1029.2
20260830163632 51 73 0.0 0.0 0.00 0.00 0.00 92 1029.2
20260830162132 51 73 0.0 0.0 0.00 0.00 0.00 92 1029.4
20260830161631 51 73 0.0 0.0 0.00 0.00 0.00 92 1029.5
20260830161131 51 73 0.0 0.0 0.00 0.00 0.00 92 1029.6
20260830160131 51 73 0.0 0.0 0.00 0.00 0.00 92 1029.5
20260830155631 51 74 0.0 0.0 0.00 0.00 0.00 92 1029.6
20260830155131 51 73 0.0 0.0 0.00 0.00 0.00 92 1029.6
20260830154131 51 73 0.0 0.0 0.00 0.00 0.00 92 1029.6
20260830153631 51 73 0.0 0.0 0.00 0.00 0.00 91 1029.6
20260830153131 51 74 0.0 0.0 0.00 0.00 0.00 91 1029.8
20260830152631 51 73 0.0 0.0 0.00 0.00 0.00 91 1029.8
20260830152131 51 73 0.0 0.0 0.00 0.00 0.00 91 1029.8
20260830151631 51 73 0.0 0.0 0.00 0.00 0.00 92 1029.8
20260830151131 51 73 0.0 0.0 0.00 0.00 0.00 91 1029.8
20260830150632 51 73 0.0 0.0 0.00 0.00 0.00 91 1029.8
20260830150131 51 74 0.0 0.0 0.00 0.00 0.00 91 1029.7
20260830145631 51 73 0.0 0.0 0.00 0.00 0.00 91 1029.7
20260830145131 51 73 0.0 0.0 0.00 0.00 0.00 91 1029.8
20260830144631 51 74 0.0 0.0 0.00 0.00 0.00 91 1029.9
20260830144131 51 73 0.0 0.0 0.00 0.00 0.00 91 1029.9
20260830143631 51 74 0.0 0.0 0.00 0.00 0.00 91 1029.9
20260830143131 51 73 0.0 0.0 0.00 0.00 0.00 91 1029.8
20260830142631 52 73 0.0 0.0 0.00 0.00 0.00 91 1029.9
20260830141631 52 73 0.0 0.0 0.00 0.00 0.00 91 1029.8
20260830140631 52 74 0.0 0.0 0.00 0.00 0.00 91 1029.8
20260830135631 52 74 0.0 0.0 0.00 0.00 0.00 91 1029.8
20260830135131 52 73 0.0 0.0 0.00 0.00 0.00 91 1029.8
20260830134631 52 73 0.0 0.0 0.00 0.00 0.00 90 1029.8
20260830134131 52 73 0.0 0.0 0.00 0.00 0.00 90 1029.8
20260830133631 52 73 0.0 0.0 0.00 0.00 0.00 90 1029.9
20260830132631 52 74 0.0 0.0 0.00 0.00 0.00 90 1029.9
20260830132130 52 74 0.0 0.0 0.00 0.00 0.00 90 1029.9
20260830131631 52 74 0.0 0.0 0.00 0.00 0.00 90 1030.0
20260830131131 52 73 0.0 0.0 0.00 0.00 0.00 90 1029.9
20260830130631 52 73 0.0 0.0 0.00 0.00 0.00 90 1029.9
20260830130131 52 73 0.0 0.0 0.00 0.00 0.00 90 1030.0
20260830125631 52 73 0.0 0.0 0.00 0.00 0.00 90 1030.0
20260830125131 52 73 0.0 0.0 0.00 0.00 0.00 90 1030.1
20260830124130 52 73 0.0 0.0 0.00 0.00 0.00 89 1030.1
20260830123631 52 73 0.0 0.0 0.00 0.00 0.00 89 1030.1
20260830123131 52 73 0.0 0.0 0.00 0.00 0.00 89 1030.1
20260830122131 53 73 0.0 0.0 0.00 0.00 0.00 88 1030.0
20260830121631 53 73 0.0 0.0 0.00 0.00 0.00 88 1030.1
20260830121131 53 74 0.0 0.0 0.00 0.00 0.00 88 1030.1
20260830120631 53 74 0.0 0.0 0.00 0.00 0.00 88 1030.0
20260830120131 53 74 0.0 0.0 0.00 0.00 0.00 88 1030.0
20260830115630 53 66 0.0 0.0 0.00 0.00 0.00 88 1030.0
20260830115131 53 66 0.0 0.0 0.00 0.00 0.00 87 1029.8
20260830114631 53 66 0.0 0.0 0.00 0.00 0.00 87 1029.7
20260830114131 54 65 0.0 0.0 0.00 0.00 0.00 87 1029.5
20260830113130 54 66 0.0 0.0 0.00 0.00 0.00 87 1029.5
20260830112631 54 66 0.0 0.0 0.00 0.00 0.00 86 1029.4
20260830111631 54 65 0.0 0.0 0.00 0.00 0.00 85 1029.4
20260830110632 54 66 0.0 0.0 0.00 0.00 0.00 85 1029.4
20260830110131 55 65 0.0 0.0 0.00 0.00 0.00 84 1029.4
20260830105631 55 66 0.0 0.0 0.00 0.00 0.00 84 1029.5
20260830105131 55 66 0.0 0.0 0.00 0.00 0.00 84 1029.4
20260830104130 55 66 0.0 0.0 0.00 0.00 0.00 83 1029.4
20260830103631 56 66 0.0 0.0 0.00 0.00 0.00 83 1029.4
20260830103130 56 66 0.0 0.0 0.00 0.00 0.00 83 1029.3
20260830102631 56 66 0.0 0.0 0.00 0.00 0.00 83 1029.2
20260830102130 56 66 0.0 0.0 0.00 0.00 0.00 82 1029.2
20260830101631 56 66 0.0 0.0 0.00 0.00 0.00 83 1029.2
20260830101130 57 66 0.0 0.0 0.00 0.00 0.00 82 1029.2
20260830100631 57 65 0.0 0.0 0.00 0.00 0.00 82 1029.1
20260830100130 57 66 0.0 0.0 0.00 0.00 0.00 82 1029.0
20260830095631 57 66 0.0 0.0 0.00 0.00 0.00 81 1029.0
20260830095131 57 65 0.0 0.0 0.00 0.00 0.00 81 1029.0
20260830094631 58 65 0.0 0.0 0.00 0.00 0.00 81 1029.0
20260830094131 58 66 0.0 0.0 0.00 0.00 0.00 81 1029.0
20260830093630 58 66 0.0 0.0 0.00 0.00 0.00 81 1029.0
20260830092631 59 66 0.0 0.0 0.00 0.00 0.00 80 1028.9
20260830092131 59 65 0.0 0.0 0.00 0.00 0.00 79 1028.8
20260830091631 59 65 0.0 0.0 0.00 0.00 0.00 79 1028.8
20260830091130 60 65 0.0 0.0 0.00 0.00 0.00 78 1028.9
20260830090630 60 65 0.0 0.0 0.00 0.00 0.00 77 1028.7
20260830090130 60 65 0.0 0.0 0.00 0.00 0.00 77 1028.7
20260830085631 61 65 0.0 0.0 0.00 0.00 0.00 76 1028.7
20260830085131 61 65 0.0 0.0 0.00 0.00 0.00 76 1028.6
20260830084631 61 66 0.0 0.0 0.00 0.00 0.00 75 1028.7
20260830084131 62 65 0.0 0.0 0.00 0.00 0.00 75 1028.6
20260830083130 63 65 0.0 0.0 0.00 0.00 0.00 74 1028.3
20260830082130 63 65 0.0 0.0 0.00 0.00 0.00 72 1028.1
20260830081630 64 66 0.0 0.0 0.00 0.00 0.00 72 1028.0
20260830081131 64 65 0.0 0.0 0.00 0.00 0.00 71 1028.0
20260830080630 64 66 0.0 0.0 0.00 0.00 0.00 71 1027.9
20260830080131 65 65 0.0 0.0 0.00 0.00 0.00 70 1027.9
20260830075631 65 65 0.0 0.0 0.00 0.00 0.00 70 1028.0
20260830075131 65 65 0.0 0.0 0.00 0.00 0.00 70 1028.0
20260830074630 66 66 0.0 0.0 0.00 0.00 0.00 69 1028.0
20260830074131 66 65 0.0 0.0 0.00 0.00 0.00 68 1027.9
20260830073630 66 65 0.0 0.0 0.00 0.00 0.00 67 1027.9
20260830073130 67 65 0.0 0.0 0.00 0.00 0.00 66 1027.9
20260830072630 67 65 0.0 0.0 0.00 0.00 0.00 65 1027.9
20260830072130 68 66 0.0 0.0 0.00 0.00 0.00 63 1027.9
20260830071631 68 65 0.0 0.0 0.00 0.00 0.00 62 1027.9
20260830071131 68 65 0.0 0.0 0.00 0.00 0.00 61 1027.8
20260830070631 69 65 0.0 0.0 0.00 0.00 0.00 61 1027.7
20260830070131 69 65 0.0 1.0 0.00 0.00 0.00 60 1027.7
20260830065631 69 65 0.0 0.0 0.00 0.00 0.00 58 1027.6
20260830065131 70 65 0.0 0.0 0.00 0.00 0.00 57 1027.6
20260830064630 70 65 0.0 0.0 0.00 0.00 0.00 55 1027.6
20260830064131 71 64 0.0 0.0 0.00 0.00 0.00 54 1027.6
20260830063631 71 65 0.0 0.0 0.00 0.00 0.00 52 1027.6
20260830063130 71 64 0.0 0.0 0.00 0.00 0.00 51 1027.6
20260830062630 72 64 0.0 3.0 0.00 0.00 0.00 49 1027.6
20260830062131 72 65 0.0 1.0 0.00 0.00 0.00 50 1027.6
20260830061630 72 66 0.0 1.0 0.00 0.00 0.00 51 1027.6
20260830061130 72 64 0.0 1.0 0.00 0.00 0.00 50 1027.6
20260830060630 73 63 0.0 1.0 0.00 0.00 0.00 50 1027.6
20260830060130 73 63 0.0 2.0 0.00 0.00 0.00 51 1027.6
20260830055631 73 66 0.0 1.0 0.00 0.00 0.00 51 1027.7
20260830054631 73 63 0.0 0.0 0.00 0.00 0.00 51 1027.7
20260830054131 73 65 0.0 0.0 0.00 0.00 0.00 53 1027.7
20260830053630 73 55 0.0 3.0 0.00 0.00 0.00 53 1027.7
20260830053130 73 40 0.0 3.0 0.00 0.00 0.00 53 1027.8
20260830052631 73 23 0.0 5.0 0.00 0.00 0.00 53 1027.8
20260830052130 72 66 0.0 2.0 0.00 0.00 0.00 53 1027.8
20260830051631 73 63 1.0 3.0 0.00 0.00 0.00 54 1027.8
20260830050630 73 66 0.0 0.0 0.00 0.00 0.00 55 1027.9
20260830045630 73 59 0.0 3.0 0.00 0.00 0.00 56 1027.9
20260830045131 73 74 0.0 1.0 0.00 0.00 0.00 58 1028.0